FW0472 Weather Reports


Display with metric or nautical units.
time (UTC)temp
F
wind
direction
speed
MPH
gust
MPH
rain 1hr
in
rain 24hr
in
rain mn
in
humidity
%
barometer
mb
20260505130106 61 294 2.0 2.0 0.00 0.00 0.00 60 1034.3
20260505124555 60 321 0.0 1.0 0.00 0.00 0.00 62 1034.3
20260505124051 59 335 0.0 0.0 0.00 0.00 0.00 63 1034.4
20260505123548 59 327 0.0 0.0 0.00 0.00 0.00 63 1034.2
20260505123044 59 350 0.0 0.0 0.00 0.00 0.00 63 1034.5
20260505122541 59 322 1.0 2.0 0.00 0.00 0.00 63 1034.5
20260505122038 58 185 1.0 2.0 0.00 0.00 0.00 63 1034.7
20260505121535 58 65 1.0 1.0 0.00 0.00 0.00 65 1034.9
20260505121032 58 314 0.0 0.0 0.00 0.00 0.00 63 1034.7
20260505120528 59 261 1.0 1.0 0.00 0.00 0.00 63 1034.5
20260505120023 58 333 1.0 1.0 0.00 0.00 0.00 63 1034.5
20260505115518 58 307 2.0 3.0 0.00 0.00 0.00 64 1034.7
20260505115016 57 337 0.0 0.0 0.00 0.00 0.00 67 1034.8
20260505114513 57 324 1.0 1.0 0.00 0.00 0.00 66 1035.0
20260505114009 57 327 0.0 1.0 0.00 0.00 0.00 67 1035.0
20260505113506 56 342 1.0 1.0 0.00 0.00 0.00 67 1035.1
20260505113003 55 34 1.0 1.0 0.00 0.00 0.00 68 1035.1
20260505112459 55 348 0.0 0.0 0.00 0.00 0.00 70 1035.1
20260505111956 54 13 1.0 1.0 0.00 0.00 0.00 71 1035.0
20260505111450 53 4 1.0 1.0 0.00 0.00 0.00 72 1035.1
20260505110946 53 343 0.0 0.0 0.00 0.00 0.00 73 1035.0
20260505110444 53 342 0.0 0.0 0.00 0.00 0.00 73 1034.8
20260505101914 53 336 0.0 0.0 0.00 0.00 0.00 70 1034.5
20260505101409 52 333 0.0 0.0 0.00 0.00 0.00 71 1034.5
20260505100905 52 334 0.0 0.0 0.00 0.00 0.00 72 1034.5
20260505100402 52 329 0.0 0.0 0.00 0.00 0.00 72 1034.5
20260505095857 52 335 0.0 0.0 0.00 0.00 0.00 71 1034.5
20260505095355 53 329 0.0 0.0 0.00 0.00 0.00 70 1034.4
20260505094851 53 327 0.0 0.0 0.00 0.00 0.00 70 1034.3
20260505094348 53 333 0.0 0.0 0.00 0.00 0.00 70 1034.4
20260505093844 53 332 0.0 0.0 0.00 0.00 0.00 69 1034.4
20260505093341 53 332 0.0 0.0 0.00 0.00 0.00 69 1034.6
20260505092838 54 332 0.0 0.0 0.00 0.00 0.00 68 1034.5
20260505092337 53 324 0.0 0.0 0.00 0.00 0.00 69 1034.6
20260505091833 53 324 0.0 0.0 0.00 0.00 0.00 69 1034.7
20260505091331 53 339 0.0 0.0 0.00 0.00 0.00 68 1034.6
20260505090829 53 337 0.0 0.0 0.00 0.00 0.00 68 1034.9
20260505090327 54 359 0.0 1.0 0.00 0.00 0.00 68 1034.7
20260505085824 54 353 0.0 0.0 0.00 0.00 0.00 68 1034.8
20260505085322 53 3 0.0 1.0 0.00 0.00 0.00 67 1034.8
20260505084819 53 323 0.0 1.0 0.00 0.00 0.00 67 1034.7
20260505084318 53 331 0.0 0.0 0.00 0.00 0.00 68 1034.9
20260505083814 54 332 0.0 0.0 0.00 0.00 0.00 67 1035.0
20260505083312 54 330 0.0 0.0 0.00 0.00 0.00 67 1034.6
20260505082808 54 342 0.0 0.0 0.00 0.00 0.00 67 1034.7
20260505082305 53 323 0.0 0.0 0.00 0.00 0.00 67 1034.8
20260505081801 53 323 0.0 0.0 0.00 0.00 0.00 67 1034.8
20260505081258 54 323 0.0 0.0 0.00 0.00 0.00 67 1034.8
20260505080755 54 322 0.0 1.0 0.00 0.00 0.00 66 1034.9
20260505080250 55 351 0.0 0.0 0.00 0.00 0.00 64 1034.7
20260505075746 55 345 0.0 0.0 0.00 0.00 0.00 64 1034.7
20260505075244 55 357 1.0 1.0 0.00 0.00 0.00 64 1034.9
20260505074741 55 334 0.0 0.0 0.00 0.00 0.00 63 1034.8
20260505074239 55 345 0.0 0.0 0.00 0.00 0.00 64 1034.9
20260505073736 55 344 0.0 0.0 0.00 0.00 0.00 64 1034.9
20260505073233 55 345 0.0 0.0 0.00 0.00 0.00 65 1034.8
20260505072730 55 329 0.0 0.0 0.00 0.00 0.00 65 1035.0
20260505072226 55 323 0.0 0.0 0.00 0.00 0.00 64 1035.1
20260505071721 55 328 0.0 0.0 0.00 0.00 0.00 64 1035.0
20260505071219 55 337 0.0 0.0 0.00 0.00 0.00 64 1034.9
20260505070716 55 334 0.0 0.0 0.00 0.00 0.00 63 1035.1
20260505070212 55 337 0.0 0.0 0.00 0.00 0.00 63 1035.1
20260505065708 56 339 0.0 0.0 0.00 0.00 0.00 63 1035.2
20260505065205 55 341 0.0 0.0 0.00 0.00 0.00 63 1035.0
20260505064702 55 2 1.0 1.0 0.00 0.00 0.00 63 1035.0
20260505064200 55 354 1.0 1.0 0.00 0.00 0.00 64 1034.9
20260505063657 55 338 1.0 1.0 0.00 0.00 0.00 65 1035.1
20260505063153 55 313 0.0 1.0 0.00 0.00 0.00 63 1035.1
20260505062649 56 343 0.0 0.0 0.00 0.00 0.00 63 1035.2
20260505062147 56 340 0.0 0.0 0.00 0.00 0.00 62 1035.1
20260505061644 56 348 0.0 0.0 0.00 0.00 0.00 61 1035.2
20260505061143 56 345 0.0 1.0 0.00 0.00 0.00 62 1035.2
20260505060639 56 228 0.0 1.0 0.00 0.00 0.00 61 1035.2
20260505060136 56 352 0.0 0.0 0.00 0.00 0.00 61 1035.3
20260505055631 56 346 0.0 0.0 0.00 0.00 0.00 62 1035.3
20260505055128 56 342 1.0 1.0 0.00 0.00 0.00 61 1035.3
20260505054626 56 349 0.0 0.0 0.00 0.00 0.00 62 1035.2
20260505054124 56 333 0.0 0.0 0.00 0.00 0.00 61 1035.2
20260505053621 57 353 0.0 1.0 0.00 0.00 0.00 60 1035.1
20260505053117 57 132 2.0 2.0 0.00 0.00 0.00 60 1035.1
20260505052614 57 345 0.0 1.0 0.00 0.00 0.00 60 1035.2
20260505052112 57 330 0.0 0.0 0.00 0.00 0.00 60 1035.0
20260505051608 57 339 0.0 0.0 0.00 0.00 0.00 59 1035.3
20260505051107 57 349 0.0 1.0 0.00 0.00 0.00 59 1035.1
20260505050604 57 319 1.0 1.0 0.00 0.00 0.00 59 1035.1
20260505041532 59 337 0.0 0.0 0.00 0.00 0.00 55 1035.0
20260505041029 59 6 1.0 1.0 0.00 0.00 0.00 54 1035.0
20260505040526 59 171 4.0 6.0 0.00 0.00 0.00 54 1035.0
20260505040024 59 333 0.0 1.0 0.00 0.00 0.00 54 1034.9
20260505035520 59 315 1.0 1.0 0.00 0.00 0.00 53 1034.9
20260505035016 59 243 1.0 1.0 0.00 0.00 0.00 52 1034.7
20260505034513 59 329 0.0 0.0 0.00 0.00 0.00 51 1034.8
20260505034010 59 358 1.0 1.0 0.00 0.00 0.00 50 1034.6
20260505033507 60 354 0.0 0.0 0.00 0.00 0.00 50 1034.6
20260505033005 59 184 2.0 2.0 0.00 0.00 0.00 50 1034.7
20260505032502 59 126 2.0 3.0 0.00 0.00 0.00 51 1034.6
20260505031958 58 345 1.0 1.0 0.00 0.00 0.00 52 1034.7
20260505031455 59 327 0.0 0.0 0.00 0.00 0.00 52 1034.6
20260505030952 58 312 1.0 1.0 0.00 0.00 0.00 52 1034.4
20260505030449 58 327 0.0 0.0 0.00 0.00 0.00 52 1034.5
20260505025944 58 353 0.0 0.0 0.00 0.00 0.00 53 1034.5
20260505025441 57 342 0.0 0.0 0.00 0.00 0.00 54 1034.5
20260505024940 57 345 0.0 0.0 0.00 0.00 0.00 55 1034.3
20260505024437 58 346 0.0 0.0 0.00 0.00 0.00 54 1034.3
20260505023934 58 335 0.0 0.0 0.00 0.00 0.00 54 1034.4
20260505023431 58 348 0.0 0.0 0.00 0.00 0.00 53 1034.5
20260505022928 58 348 0.0 0.0 0.00 0.00 0.00 52 1034.5
20260505022426 59 348 0.0 0.0 0.00 0.00 0.00 52 1034.5
20260505021923 59 354 0.0 0.0 0.00 0.00 0.00 52 1034.6
20260505021419 58 349 0.0 0.0 0.00 0.00 0.00 53 1034.6
20260505020915 58 348 0.0 0.0 0.00 0.00 0.00 53 1034.5
20260505020410 59 325 0.0 0.0 0.00 0.00 0.00 53 1034.6
20260505015908 59 326 0.0 0.0 0.00 0.00 0.00 51 1034.6
20260505015405 60 331 0.0 0.0 0.00 0.00 0.00 50 1034.5
20260505014902 60 328 0.0 0.0 0.00 0.00 0.00 49 1034.6
20260505014359 60 342 0.0 0.0 0.00 0.00 0.00 49 1034.5
20260505013855 60 328 0.0 1.0 0.00 0.00 0.00 49 1034.7
20260505013352 60 328 0.0 0.0 0.00 0.00 0.00 49 1034.3
20260505012851 61 328 0.0 0.0 0.00 0.00 0.00 48 1034.4
20260505012349 61 328 0.0 0.0 0.00 0.00 0.00 47 1034.3
20260505011844 61 328 0.0 0.0 0.00 0.00 0.00 47 1034.2
20260505011341 62 328 0.0 0.0 0.00 0.00 0.00 46 1034.5
20260505010837 62 328 0.0 0.0 0.00 0.00 0.00 46 1034.4
20260505010333 62 328 0.0 0.0 0.00 0.00 0.00 46 1034.3
20260505005830 62 328 0.0 0.0 0.00 0.00 0.00 46 1034.3
20260505005327 62 328 0.0 0.0 0.00 0.00 0.00 45 1034.3
20260505004824 62 328 0.0 0.0 0.00 0.00 0.00 45 1034.2
20260505004320 62 328 0.0 0.0 0.00 0.00 0.00 44 1034.1
20260505003818 62 328 0.0 0.0 0.00 0.00 0.00 44 1034.3
20260505003315 62 327 0.0 0.0 0.00 0.00 0.00 44 1034.1
20260505002811 62 329 0.0 0.0 0.00 0.00 0.00 45 1034.0
20260505002308 63 329 0.0 0.0 0.00 0.00 0.00 44 1033.9
20260505001806 63 329 0.0 0.0 0.00 0.00 0.00 43 1034.0
20260505001303 64 328 0.0 0.0 0.00 0.00 0.00 43 1033.9
20260505000800 64 326 0.0 1.0 0.00 0.00 0.00 43 1033.7
20260505000258 65 327 0.0 0.0 0.00 0.00 0.00 42 1033.7
20260504235754 65 22 1.0 1.0 0.00 0.00 0.00 41 1033.7
20260504235250 65 328 0.0 0.0 0.00 0.00 0.00 41 1033.6
20260504234748 65 329 0.0 0.0 0.00 0.00 0.00 41 1033.6
20260504234245 65 303 0.0 1.0 0.00 0.00 0.00 41 1033.5
20260504233741 65 280 1.0 2.0 0.00 0.00 0.00 40 1033.5
20260504233237 65 322 0.0 0.0 0.00 0.00 0.00 41 1033.6
20260504232735 66 331 0.0 0.0 0.00 0.00 0.00 40 1033.4
20260504232231 66 321 2.0 3.0 0.00 0.00 0.00 39 1033.3
20260504231728 66 326 1.0 1.0 0.00 0.00 0.00 40 1033.2
20260504231225 66 342 1.0 2.0 0.00 0.00 0.00 40 1033.1
20260504230721 66 315 2.0 2.0 0.00 0.00 0.00 39 1033.2
20260504230220 66 334 0.0 1.0 0.00 0.00 0.00 40 1033.1
20260504225718 67 328 0.0 0.0 0.00 0.00 0.00 39 1033.0
20260504225214 67 283 3.0 3.0 0.00 0.00 0.00 38 1032.8
20260504224711 67 323 0.0 0.0 0.00 0.00 0.00 39 1032.9
20260504224209 67 312 1.0 1.0 0.00 0.00 0.00 39 1033.1
20260504223705 67 329 1.0 1.0 0.00 0.00 0.00 39 1032.8
20260504223200 67 323 0.0 1.0 0.00 0.00 0.00 38 1033.0
20260504222658 67 285 3.0 5.0 0.00 0.00 0.00 37 1032.8
20260504222154 67 337 0.0 0.0 0.00 0.00 0.00 38 1033.1
20260504221652 67 277 3.0 5.0 0.00 0.00 0.00 38 1032.9
20260504221149 68 323 1.0 2.0 0.00 0.00 0.00 37 1032.9
20260504220645 70 310 4.0 6.0 0.00 0.00 0.00 35 1032.8
20260504220143 71 187 3.0 3.0 0.00 0.00 0.00 34 1032.8
20260504215639 71 306 0.0 1.0 0.00 0.00 0.00 33 1032.7
20260504215136 71 304 2.0 2.0 0.00 0.00 0.00 34 1032.8
20260504214632 71 278 2.0 3.0 0.00 0.00 0.00 34 1032.7
20260504214130 71 73 0.0 1.0 0.00 0.00 0.00 34 1032.8
20260504213625 71 197 2.0 2.0 0.00 0.00 0.00 35 1032.7
20260504213122 71 266 2.0 2.0 0.00 0.00 0.00 33 1032.9
20260504212618 71 319 2.0 3.0 0.00 0.00 0.00 35 1032.7
20260504212115 71 326 0.0 0.0 0.00 0.00 0.00 36 1032.9
20260504211613 70 324 2.0 3.0 0.00 0.00 0.00 35 1032.7
20260504211109 70 325 1.0 1.0 0.00 0.00 0.00 35 1033.1
20260504210607 71 303 6.0 7.0 0.00 0.00 0.00 33 1032.9
20260504205601 70 302 2.0 2.0 0.00 0.00 0.00 34 1033.0
20260504205058 70 293 2.0 2.0 0.00 0.00 0.00 35 1032.9
20260504204556 71 310 3.0 3.0 0.00 0.00 0.00 34 1032.9
20260504204055 71 338 1.0 2.0 0.00 0.00 0.00 33 1033.2
20260504203553 70 327 1.0 1.0 0.00 0.00 0.00 35 1032.9
20260504203050 71 325 2.0 2.0 0.00 0.00 0.00 35 1033.2
20260504202545 70 315 1.0 1.0 0.00 0.00 0.00 37 1032.9
20260504202042 69 322 1.0 1.0 0.00 0.00 0.00 35 1032.9
20260504201539 69 340 0.0 1.0 0.00 0.00 0.00 37 1033.1
20260504201037 69 316 1.0 1.0 0.00 0.00 0.00 37 1033.0
20260504200533 69 171 3.0 3.0 0.00 0.00 0.00 36 1033.1
20260504200030 71 192 2.0 3.0 0.00 0.00 0.00 35 1033.2
20260504195526 70 314 1.0 1.0 0.00 0.00 0.00 35 1033.1
20260504195023 72 272 3.0 5.0 0.00 0.00 0.00 34 1033.1
20260504194519 71 253 3.0 5.0 0.00 0.00 0.00 34 1033.2
20260504194015 71 1 2.0 2.0 0.00 0.00 0.00 34 1033.2
20260504193512 70 338 3.0 6.0 0.00 0.00 0.00 35 1033.3
20260504193011 69 258 3.0 5.0 0.00 0.00 0.00 38 1033.3
20260504192509 70 282 2.0 3.0 0.00 0.00 0.00 37 1033.1
20260504192007 70 302 1.0 2.0 0.00 0.00 0.00 37 1033.5
20260504191504 70 284 3.0 5.0 0.00 0.00 0.00 37 1033.3
20260504190959 69 313 1.0 1.0 0.00 0.00 0.00 38 1033.3
20260504190455 69 320 2.0 3.0 0.00 0.00 0.00 37 1033.3
20260504185952 69 300 1.0 2.0 0.00 0.00 0.00 37 1033.4
20260504185449 66 302 1.0 1.0 0.00 0.00 0.00 41 1033.3
20260504184945 65 335 0.0 0.0 0.00 0.00 0.00 41 1033.4
20260504184441 66 295 1.0 2.0 0.00 0.00 0.00 41 1033.4
20260504183937 67 283 3.0 3.0 0.00 0.00 0.00 39 1033.5
20260504183434 66 316 1.0 1.0 0.00 0.00 0.00 40 1033.5
20260504182932 66 291 2.0 3.0 0.00 0.00 0.00 43 1033.5
20260504182429 66 289 2.0 2.0 0.00 0.00 0.00 41 1033.6
20260504181926 65 348 1.0 1.0 0.00 0.00 0.00 42 1033.6
20260504181423 65 293 2.0 2.0 0.00 0.00 0.00 42 1033.5
20260504180922 64 282 3.0 3.0 0.00 0.00 0.00 44 1033.7
20260504180420 64 308 1.0 1.0 0.00 0.00 0.00 45 1033.7
20260504175918 64 22 3.0 5.0 0.00 0.00 0.00 43 1033.3
20260504175415 65 350 2.0 3.0 0.00 0.00 0.00 43 1033.6
20260504174913 64 2 1.0 1.0 0.00 0.00 0.00 43 1033.6
20260504174410 63 332 0.0 0.0 0.00 0.00 0.00 44 1033.6
20260504173907 63 1 1.0 1.0 0.00 0.00 0.00 44 1033.7
20260504173403 64 282 7.0 10.0 0.00 0.00 0.00 43 1033.9
20260504172901 63 324 0.0 0.0 0.00 0.00 0.00 44 1033.8
20260504172357 63 25 0.0 0.0 0.00 0.00 0.00 43 1033.8
20260504171853 62 330 0.0 0.0 0.00 0.00 0.00 48 1033.9
20260504171351 61 344 1.0 1.0 0.00 0.00 0.00 46 1034.0
20260504170848 61 319 1.0 2.0 0.00 0.00 0.00 46 1033.9
20260504170344 61 321 0.0 0.0 0.00 0.00 0.00 46 1033.9
20260504160303 61 292 2.0 2.0 0.00 0.00 0.00 47 1034.2
20260504150728 60 291 2.0 3.0 0.00 0.00 0.00 48 1034.3
20260504150225 62 304 1.0 1.0 0.00 0.00 0.00 44 1034.1
20260504141154 59 194 2.0 3.0 0.00 0.00 0.00 48 1034.1
20260504140651 58 184 2.0 3.0 0.00 0.00 0.00 49 1034.2
20260504140146 57 186 2.0 2.0 0.00 0.00 0.00 49 1034.2